Regional Weather Roundup
Issued by NWS Goodland, KS

Home | Current Version | Previous Version | Text Only | Print | Product List | Glossary Off
Versions: 1 2 3 4 5 6 7 8 9 10 11 12 13 14 15 16 17 18 19 20 21 22 23 24 25 26 27 28 29 30 31 32 33 34 35 36 37 38 39 40 41 42 43 44 45 46 47 48 49 50

000
ASUS43 KGLD 261559
RWRGLD

GOODLAND FORECAST AREA HOURLY WEATHER ROUNDUP
NATIONAL WEATHER SERVICE GOODLAND KS
1000 AM MDT THU MAR 26 2015

...OFFICIAL OBSERVATIONS...

CITY           SKY/WX    TMP DP  RH WIND       PRES   REMARKS
GOODLAND KS    PTSUNNY   50  34  54 W13       30.18F
HILL CITY KS   MOSUNNY   44  32  62 SW8       30.23F
IMPERIAL NEB     N/A     46  32  58 W15       30.15F
MCCOOK NEB     CLOUDY    44  30  57 SW10      30.18F
AKRON CO       PTSUNNY   44  29  55 W16G26    30.18S
BURLINGTON CO  SUNNY     50  32  50 W14       30.19F
LIMON CO       SUNNY     44  26  49 W7        30.22F
$$

...UNOFFICIAL OBSERVATIONS...

CITY           SKY/WX    TMP DP  RH WIND       PRES   REMARKS
COLBY KS       SUNNY     46  39  76 SW8       30.18F
GOVE KS          N/A     40  32  73 MISG        N/A
LENORA KS        N/A     41  32  70 MISG        N/A
NORTON KS      SUNNY     39  25  56 S9        30.19F
SHARON SPRINGS   N/A     46  40  79 SW6         N/A
TRENTON NEB      N/A     40  32  73 SW7         N/A
KIT CARSON CO    N/A     47  37  67 MISG        N/A
YUMA CO          N/A     45  29  52 W23         N/A
$$



USA.gov is the U.S. government's official web portal to all federal, state and local government web resources and services.